Location: Newark
(38.4667°N, 106.2667°E)
Time: 11:12:40
(UTC+00:00)

LightSail 2 - Visible Passes

Search period start: 07 April 2020 00:00
Search period end: 17 April 2020 00:00
Orbit: 694 x 724 km, 24.0° (Epoch: 06 April)

Date Brightness Start Highest point End Pass type
(mag) Time Alt. Az. Time Alt. Az. Time Alt. Az.
07 Apr 7.2 22:00:33 10° SSW 22:03:19 15° S 22:06:04 10° SE visible
08 Apr 7.1 21:02:48 12° S 21:04:16 14° S 21:06:44 10° SE visible
09 Apr 7.6 20:07:05 10° SSE 20:07:05 10° SSE 20:07:08 10° SSE visible
09 Apr 7.1 21:46:58 10° SW 21:49:51 15° S 21:52:42 10° SE visible
10 Apr 7.0 20:50:14 15° S 20:50:47 15° S 20:53:36 10° SE visible
11 Apr 7.1 21:33:40 10° SW 21:36:20 14° S 21:38:59 10° SSE visible
12 Apr 7.0 20:37:45 15° S 20:37:45 15° S 20:40:06 10° SSE visible
13 Apr 7.1 21:21:00 10° SSW 21:22:46 12° S 21:24:47 10° SSE visible
14 Apr 7.3 20:25:25 12° SSE 20:25:25 12° SSE 20:26:15 10° SSE visible
